Temp
-12 -12 -12 -11 -11 -11 -11 -11 -10 -10 -10 -10 -9 -10 -10 -10 -10 -9 -10 -9 -10 -10 -10 -10 -10 -10 -10 -10 -10 -10 -10 -10 -10 -10 -11 -11 -10 -10 -10 -10 -10 -10 -11 -10 -11
-12 -12 -12 -12 -11 -12 -11 -11 -11 -10 -10 -10 -10 -10 -10 -10 -10 -10 -11 -10 -10 -11 -11 -11 -10 -10 -10 -10 -10 -10 -10 -10 -10 -10 -10 -11 -10 -10 -10 -9 -10 -10 -10 -10 -10
-13 -12 -12 -12 -12 -12 -12 -12 -12 -11 -11 -11 -11 -11 -10 -10 -10 -10 -11 -10 -11 -11 -11 -11 -10 -10 -10 -10 -10 -10 -11 -10 -11 -11 -10 -11 -10 -10 -9 -10 -10 -10 -10 -11 -11
-14 -13 -13 -12 -12 -12 -12 -12 -12 -12 -11 -11 -11 -11 -11 -11 -10 -10 -11 -10 -11 -11 -11 -11 -11 -11 -10 -11 -10 -10 -11 -11 -11 -11 -11 -11 -11 -11 -10 -10 -10 -10 -11 -11 -11
-15 -14 -14 -13 -13 -12 -12 -12 -12 -12 -12 -12 -12 -11 -11 -11 -10 -10 -11 -11 -11 -11 -11 -11 -11 -11 -10 -11 -10 -10 -11 -11 -11 -11 -12 -11 -11 -11 -11 -11 -11 -11 -11 -11 -12
-15 -15 -14 -14 -13 -13 -12 -12 -12 -12 -12 -12 -12 -12 -11 -11 -11 -11 -11 -11 -11 -12 -12 -12 -12 -11 -11 -11 -11 -11 -11 -11 -11 -11 -12 -12 -11 -11 -12 -11 -11 -12 -12 -12 -12
-15 -15 -15 -14 -14 -13 -13 -13 -12 -12 -12 -12 -13 -12 -12 -11 -11 -12 -11 -11 -11 -12 -12 -12 -12 -12 -11 -11 -11 -11 -11 -12 -12 -12 -12 -12 -12 -11 -12 -12 -12 -12 -12 -12 -12
-17 -17 -15 -15 -14 -14 -13 -13 -13 -13 -13 -13 -13 -12 -11 -11 -12 -11 -12 -12 -12 -12 -13 -13 -12 -12 -12 -12 -11 -11 -11 -11 -12 -12 -12 -12 -12 -12 -12 -11 -11 -12 -13 -13 -12
-18 -17 -17 -15 -15 -15 -14 -13 -13 -13 -13 -13 -14 -13 -11 -11 -11 -12 -12 -12 -12 -12 -13 -14 -13 -13 -12 -11 -12 -11 -10 -11 -12 -12 -13 -13 -12 -13 -12 -12 -12 -12 -12 -12 -12
-19 -18 -18 -17 -16 -15 -15 -14 -14 -14 -13 -13 -13 -13 -11 -11 -12 -13 -13 -13 -13 -13 -13 -13 -13 -12 -11 -11 -9 -11 -11 -11 -11 -13 -13 -12 -13 -13 -13 -12 -12 -12 -12 -11 -11
-21 -19 -19 -18 -18 -16 -15 -15 -15 -14 -14 -13 -13 -13 -13 -12 -12 -13 -13 -13 -13 -13 -13 -13 -13 -10 -10 -11 -11 -11 -11 -11 -11 -13 -13 -12 -13 -13 -13 -11 -11 -12 -12 -11 -10
-24 -21 -19 -19 -18 -18 -16 -16 -15 -14 -14 -14 -14 -14 -13 -12 -12 -12 -13 -13 -13 -13 -13 -13 -12 -11 -12 -12 -12 -12 -12 -11 -11 -12 -14 -13 -12 -13 -13 -12 -11 -11 -12 -11 -11
-26 -25 -22 -20 -19 -18 -18 -18 -17 -15 -15 -14 -14 -14 -14 -14 -14 -13 -13 -14 -13 -13 -13 -13 -10 -13 -13 -13 -13 -12 -11 -12 -12 -13 -14 -13 -10 -11 -12 -12 -12 -11 -12 -11 -11
-26 -27 -26 -23 -20 -19 -19 -19 -19 -17 -16 -15 -15 -14 -14 -14 -14 -13 -14 -13 -14 -13 -14 -13 -12 -13 -13 -12 -12 -12 -12 -13 -13 -14 -13 -14 -8 -10 -11 -11 -12 -11 -12 -12 -11
-26 -26 -26 -26 -24 -21 -19 -19 -19 -20 -19 -16 -15 -15 -14 -14 -13 -13 -14 -14 -14 -13 -14 -12 -12 -13 -13 -12 -13 -12 -13 -14 -15 -14 -14 -11 -11 -6 -9 -9 -10 -11 -12 -11 -11
-26 -26 -26 -26 -26 -25 -23 -21 -20 -19 -19 -18 -16 -15 -15 -15 -14 -14 -14 -15 -15 -14 -14 -13 -13 -14 -12 -13 -13 -13 -13 -13 -14 -14 -13 -10 -12 -5 -8 -9 -10 -11 -12 -11 -11
-26 -26 -26 -26 -26 -26 -26 -25 -23 -20 -19 -18 -18 -16 -15 -15 -15 -15 -14 -14 -14 -15 -14 -13 -13 -13 -13 -12 -13 -13 -13 -13 -13 -13 -9 -11 -11 -6 -8 -9 -10 -11 -11 -10 -10
-26 -26 -26 -26 -26 -26 -27 -27 -27 -22 -20 -19 -18 -17 -16 -16 -16 -15 -15 -15 -14 -14 -14 -14 -13 -13 -12 -12 -13 -14 -13 -13 -13 -12 -10 -12 -9 -7 -9 -9 -9 -11 -11 -11 -11
-26 -26 -26 -26 -26 -26 -26 -27 -26 -24 -22 -20 -19 -19 -18 -17 -16 -17 -17 -15 -15 -15 -15 -14 -14 -13 -13 -14 -14 -14 -14 -13 -14 -13 -12 -10 -8 -8 -9 -9 -10 -10 -11 -12 -12
-26 -26 -26 -26 -26 -26 -26 -25 -24 -23 -23 -23 -21 -20 -19 -18 -19 -18 -18 -17 -15 -15 -15 -16 -15 -14 -15 -15 -15 -14 -14 -14 -14 -13 -13 -9 -9 -8 -8 -8 -9 -10 -10 -11 -11
-28 -26 -26 -26 -26 -26 -25 -24 -24 -23 -24 -24 -23 -22 -21 -20 -20 -20 -20 -18 -18 -17 -17 -16 -16 -15 -16 -15 -13 -14 -15 -15 -14 -13 -13 -10 -8 -8 -9 -9 -8 -9 -10 -11 -11
-28 -27 -26 -27 -27 -26 -25 -24 -24 -24 -24 -24 -25 -25 -23 -21 -21 -21 -22 -21 -19 -18 -19 -18 -18 -17 -15 -15 -16 -15 -15 -16 -15 -12 -12 -12 -9 -8 -9 -9 -9 -9 -9 -10 -11
-28 -28 -27 -27 -27 -25 -25 -25 -24 -24 -24 -24 -23 -24 -24 -23 -23 -22 -21 -21 -20 -20 -19 -18 -19 -18 -17 -19 -17 -15 -13 -16 -15 -15 -13 -13 -8 -9 -9 -9 -9 -9 -9 -10 -10
-29 -28 -28 -28 -26 -25 -25 -24 -24 -24 -24 -24 -24 -24 -24 -23 -24 -22 -22 -22 -21 -20 -20 -18 -19 -19 -18 -15 -15 -16 -14 -14 -14 -15 -11 -12 -8 -9 -9 -10 -10 -10 -10 -10 -11
-29 -29 -28 -28 -27 -26 -25 -25 -24 -24 -24 -24 -24 -23 -23 -23 -24 -24 -23 -22 -22 -21 -22 -21 -19 -18 -18 -17 -18 -18 -16 -16 -16 -14 -14 -11 -11 -10 -11 -11 -10 -10 -11 -11 -11
-29 -29 -29 -29 -29 -27 -25 -24 -24 -24 -25 -24 -24 -23 -25 -24 -24 -24 -24 -24 -22 -22 -22 -20 -20 -18 -18 -17 -18 -18 -17 -18 -17 -15 -15 -12 -12 -10 -11 -11 -10 -11 -12 -11 -11
-29 -29 -29 -28 -27 -26 -25 -25 -24 -25 -25 -24 -24 -25 -26 -23 -24 -24 -26 -25 -24 -25 -23 -20 -19 -19 -18 -19 -18 -17 -17 -18 -17 -16 -15 -13 -10 -11 -12 -11 -10 -12 -12 -12 -12
Height
5714 5720 5725 5730 5736 5741 5745 5750 5754 5758 5762 5764 5772 5776 5779 5783 5786 5790 5793 5794 5800 5801 5802 5803 5804 5806 5808 5809 5812 5815 5816 5816 5814 5814 5814 5811 5813 5813 5816 5821 5822 5824 5825 5829 5830
5697 5703 5708 5714 5720 5727 5731 5736 5742 5746 5751 5755 5759 5764 5768 5773 5777 5782 5783 5786 5792 5792 5795 5797 5799 5800 5802 5804 5806 5809 5813 5811 5810 5810 5809 5805 5810 5809 5811 5814 5819 5822 5823 5827 5828
5680 5685 5691 5697 5704 5710 5717 5723 5728 5733 5739 5743 5748 5752 5757 5762 5768 5773 5775 5778 5782 5784 5787 5790 5792 5795 5796 5797 5801 5803 5807 5806 5806 5804 5806 5804 5807 5806 5808 5809 5814 5817 5818 5822 5824
5659 5666 5673 5680 5686 5693 5700 5706 5712 5719 5725 5730 5735 5740 5746 5751 5759 5763 5765 5768 5773 5775 5779 5780 5784 5788 5791 5791 5792 5796 5800 5801 5802 5799 5802 5804 5800 5803 5803 5806 5809 5812 5815 5820 5820
5639 5646 5652 5661 5669 5675 5682 5690 5697 5704 5710 5716 5721 5727 5733 5740 5753 5751 5755 5759 5762 5766 5769 5772 5775 5779 5783 5785 5785 5788 5793 5793 5796 5795 5796 5798 5798 5794 5797 5803 5800 5805 5809 5813 5817
5618 5624 5632 5641 5649 5658 5664 5672 5680 5688 5694 5700 5706 5712 5719 5731 5742 5735 5744 5749 5752 5756 5758 5763 5766 5770 5775 5777 5777 5779 5783 5786 5788 5790 5788 5789 5792 5786 5798 5797 5793 5795 5800 5805 5809
5593 5602 5611 5621 5630 5639 5646 5654 5663 5671 5678 5685 5690 5696 5703 5727 5726 5725 5731 5738 5742 5746 5749 5751 5755 5761 5765 5769 5769 5769 5772 5775 5780 5783 5783 5781 5782 5787 5793 5789 5787 5788 5791 5794 5800
5570 5579 5588 5598 5609 5617 5627 5637 5647 5654 5662 5669 5673 5677 5689 5707 5711 5717 5720 5725 5729 5734 5739 5741 5744 5750 5754 5760 5760 5761 5761 5765 5776 5776 5778 5775 5774 5782 5784 5783 5780 5781 5782 5784 5790
5550 5559 5568 5577 5587 5598 5607 5618 5628 5639 5649 5654 5657 5661 5675 5691 5698 5706 5704 5713 5714 5721 5726 5728 5733 5740 5745 5748 5751 5750 5750 5759 5769 5769 5769 5767 5765 5776 5774 5774 5773 5774 5775 5777 5779
5530 5539 5548 5557 5566 5577 5589 5601 5609 5621 5628 5632 5638 5644 5665 5675 5684 5692 5693 5697 5701 5707 5712 5717 5720 5727 5734 5734 5737 5743 5746 5752 5756 5760 5756 5754 5753 5763 5766 5766 5765 5766 5768 5769 5769
5512 5519 5529 5539 5547 5555 5570 5583 5594 5599 5606 5616 5624 5630 5649 5656 5668 5674 5679 5683 5687 5693 5697 5701 5706 5714 5726 5726 5731 5735 5736 5740 5744 5750 5749 5746 5744 5749 5756 5755 5757 5759 5760 5761 5763
5499 5502 5510 5520 5529 5537 5550 5564 5570 5577 5586 5597 5606 5617 5632 5638 5647 5654 5662 5668 5671 5678 5684 5687 5692 5714 5710 5716 5720 5723 5726 5729 5730 5741 5736 5735 5732 5735 5740 5745 5749 5747 5749 5752 5756
5492 5491 5493 5499 5510 5524 5533 5541 5548 5553 5564 5580 5590 5603 5620 5625 5633 5640 5650 5655 5663 5666 5670 5675 5696 5695 5697 5702 5707 5711 5713 5717 5721 5725 5723 5721 5717 5723 5728 5731 5737 5737 5739 5741 5746
5488 5486 5483 5486 5495 5502 5519 5516 5528 5533 5539 5562 5572 5590 5600 5608 5611 5627 5632 5642 5649 5654 5655 5662 5681 5679 5683 5688 5695 5696 5705 5707 5710 5709 5711 5718 5697 5710 5712 5719 5723 5728 5728 5732 5737
5481 5481 5478 5477 5483 5489 5498 5504 5512 5515 5518 5549 5557 5575 5586 5585 5615 5612 5619 5624 5634 5642 5643 5659 5664 5671 5672 5687 5683 5694 5693 5695 5697 5695 5695 5701 5693 5694 5704 5709 5716 5719 5720 5725 5729
5474 5474 5474 5474 5476 5479 5482 5485 5488 5501 5503 5523 5542 5558 5566 5580 5594 5598 5600 5609 5620 5625 5629 5647 5649 5652 5663 5668 5670 5675 5676 5677 5679 5684 5678 5691 5695 5671 5691 5704 5711 5713 5712 5717 5722
5466 5468 5469 5469 5471 5471 5472 5475 5476 5477 5502 5514 5531 5541 5557 5568 5578 5579 5583 5590 5600 5606 5615 5632 5634 5638 5648 5654 5658 5661 5663 5666 5668 5668 5666 5676 5682 5669 5689 5694 5701 5702 5701 5707 5711
5458 5460 5463 5464 5464 5465 5465 5467 5463 5474 5492 5503 5517 5529 5535 5549 5555 5562 5563 5569 5583 5595 5604 5609 5621 5631 5636 5642 5650 5650 5653 5656 5656 5660 5666 5665 5663 5672 5681 5685 5691 5695 5696 5697 5701
5449 5452 5456 5457 5457 5458 5459 5454 5461 5475 5485 5494 5502 5504 5516 5528 5539 5544 5546 5555 5569 5580 5586 5593 5602 5615 5619 5626 5631 5638 5635 5654 5649 5650 5651 5653 5654 5657 5668 5674 5678 5684 5689 5691 5694
5438 5442 5448 5448 5449 5449 5449 5455 5466 5471 5473 5475 5478 5484 5497 5511 5518 5524 5530 5542 5557 5564 5574 5578 5584 5597 5602 5607 5611 5623 5637 5631 5630 5636 5638 5641 5643 5649 5657 5664 5673 5677 5681 5682 5683
5428 5431 5440 5437 5437 5438 5446 5456 5461 5461 5464 5464 5472 5473 5481 5493 5499 5508 5513 5534 5545 5553 5558 5567 5569 5578 5580 5583 5598 5605 5609 5614 5620 5625 5632 5630 5632 5639 5649 5653 5659 5668 5673 5675 5677
5418 5421 5426 5426 5428 5433 5444 5452 5453 5454 5456 5459 5460 5464 5473 5483 5484 5489 5497 5517 5524 5534 5539 5550 5552 5555 5563 5574 5579 5586 5595 5601 5606 5615 5618 5626 5619 5633 5637 5643 5649 5655 5661 5665 5669
5408 5410 5413 5414 5417 5429 5435 5438 5440 5446 5448 5453 5455 5457 5462 5465 5460 5473 5485 5507 5516 5522 5529 5538 5534 5542 5547 5557 5560 5565 5579 5584 5595 5599 5603 5614 5613 5628 5627 5631 5637 5646 5651 5655 5660
5398 5398 5402 5403 5411 5417 5422 5427 5431 5437 5440 5444 5447 5450 5453 5457 5459 5462 5469 5486 5493 5503 5512 5518 5518 5523 5528 5540 5556 5549 5558 5565 5571 5575 5591 5593 5612 5614 5615 5625 5630 5635 5642 5646 5650
5390 5390 5392 5395 5401 5405 5410 5417 5423 5428 5431 5433 5436 5443 5445 5445 5445 5451 5463 5472 5479 5490 5496 5498 5502 5506 5516 5530 5536 5535 5543 5550 5552 5566 5569 5587 5594 5611 5610 5610 5615 5624 5626 5630 5638
5382 5382 5384 5385 5390 5393 5400 5409 5412 5418 5417 5420 5424 5433 5430 5431 5436 5445 5453 5457 5462 5468 5474 5471 5477 5485 5487 5500 5508 5513 5519 5529 5537 5548 5556 5568 5574 5598 5599 5595 5603 5609 5612 5616 5620
5374 5375 5374 5377 5380 5384 5391 5395 5400 5402 5405 5410 5414 5415 5411 5430 5435 5434 5421 5429 5439 5441 5445 5447 5457 5463 5468 5477 5483 5490 5501 5513 5524 5531 5544 5550 5573 5594 5583 5592 5595 5598 5603 5607 5611
Wind_Speed
70 71 70 66 66 65 62 60 59 57 55 53 54 51 48 44 44 40 40 39 36 33 32 30 28 25 22 28 27 22 14 14 17 19 26 34 36 36 35 34 31 26 25 21 14
74 73 71 70 69 70 66 64 64 60 59 59 57 55 52 49 47 45 45 42 39 37 36 34 32 27 27 28 28 29 20 17 18 22 26 37 34 38 37 34 30 24 23 21 19
79 77 75 72 71 69 70 67 67 63 65 62 62 58 56 52 51 49 48 45 43 41 40 36 35 32 31 31 29 32 26 22 21 20 24 34 34 38 35 39 33 28 25 21 22
85 82 80 77 75 73 71 68 71 67 67 65 64 62 61 58 55 54 52 48 48 44 42 39 38 36 37 36 35 36 29 26 23 25 22 22 32 35 36 38 38 32 24 17 17
82 83 84 82 80 77 76 72 71 71 69 68 67 65 65 62 56 59 55 52 51 47 45 42 40 40 42 39 39 39 36 36 31 28 24 24 23 33 33 31 39 34 26 20 17
90 87 83 87 86 82 81 77 76 73 72 71 70 70 69 64 55 62 59 55 53 51 49 45 42 42 43 42 43 41 39 39 35 31 28 27 26 35 22 29 37 34 30 22 21
92 89 89 87 84 91 87 83 80 77 75 74 73 74 73 65 64 63 62 59 55 53 52 50 47 46 48 47 46 46 46 44 39 34 33 32 34 30 20 29 34 34 33 31 27
84 87 92 90 88 82 92 88 83 82 77 75 75 77 75 69 68 65 63 63 59 56 51 52 50 50 50 47 50 52 53 50 36 36 35 37 38 30 27 31 35 38 41 41 34
83 84 83 91 91 86 78 82 82 81 66 77 76 77 77 72 69 67 67 62 63 61 58 59 59 56 56 53 53 56 55 49 33 32 37 41 44 33 36 36 36 37 40 43 44
82 82 82 84 92 96 83 76 75 78 81 64 64 73 75 71 70 66 68 68 66 64 63 63 63 63 60 59 58 57 56 48 45 35 41 42 47 39 40 41 42 42 42 40 41
67 81 80 83 85 92 92 81 76 77 85 78 76 68 68 67 72 68 69 70 70 73 71 66 68 62 58 61 59 57 57 52 48 42 42 44 49 46 42 44 42 46 46 45 41
41 63 78 81 83 86 90 85 82 82 79 77 79 78 67 67 63 73 65 79 71 66 65 70 71 57 62 62 59 61 57 48 51 42 45 49 51 55 53 45 43 46 48 47 44
25 37 55 72 80 79 82 83 85 85 86 82 77 76 74 73 70 65 66 57 68 70 72 72 60 59 59 56 55 54 52 51 49 46 46 47 55 52 54 51 45 46 48 49 46
27 26 30 49 70 76 76 84 83 88 89 81 82 77 74 73 76 69 71 68 62 53 70 75 66 64 61 58 55 57 53 54 53 55 48 42 55 49 51 48 47 43 47 48 48
28 23 25 29 44 62 74 78 84 84 87 86 81 78 78 77 74 76 74 74 67 64 52 49 63 65 64 56 61 54 56 57 57 59 55 46 56 50 49 45 41 40 45 44 45
25 26 27 25 25 34 53 64 75 77 86 84 85 82 79 78 74 76 78 73 71 74 69 56 54 54 48 43 46 49 56 60 60 60 62 47 51 46 48 37 30 31 43 41 35
30 29 26 26 23 25 28 34 53 73 75 78 77 81 82 76 75 78 82 81 78 77 76 69 68 61 54 50 47 48 46 50 56 60 55 54 50 50 34 28 19 25 37 38 39
36 28 27 22 24 26 28 27 37 57 68 73 73 74 81 81 80 81 83 86 84 80 76 73 69 70 68 65 66 66 60 54 52 56 52 56 51 41 41 40 25 23 22 37 42
39 35 28 29 29 31 32 39 34 37 49 61 69 74 74 78 79 81 83 85 82 81 80 78 74 70 71 67 66 64 67 58 59 57 59 53 53 50 42 37 34 33 32 32 35
42 39 35 34 33 35 38 34 18 16 25 41 59 68 77 76 76 78 80 81 83 82 79 78 77 73 71 70 70 64 55 56 59 58 57 50 52 45 41 41 37 30 25 29 34
35 42 38 40 39 40 35 24 16 16 21 31 37 50 64 73 76 72 65 73 75 72 73 76 77 78 75 78 73 69 66 64 57 58 49 47 44 42 36 37 37 31 31 29 33
29 36 41 41 42 41 31 27 27 25 24 24 31 35 41 55 68 74 66 53 45 66 66 72 73 75 78 75 73 71 64 60 63 63 64 60 49 44 42 39 33 36 36 33 34
31 32 36 39 43 39 35 34 33 31 30 26 29 33 34 44 55 62 70 61 71 59 60 63 56 59 72 63 69 74 73 68 65 66 66 61 58 49 47 44 42 37 34 38 38
32 29 34 38 45 43 40 40 40 37 34 33 31 31 37 39 44 55 60 67 60 67 69 46 58 69 73 82 73 76 76 72 69 63 70 70 59 62 62 55 52 51 46 40 31
29 27 26 31 41 44 43 43 41 38 38 37 37 31 33 41 45 43 45 56 69 78 57 63 67 53 59 72 72 79 77 75 76 69 65 67 65 55 50 54 53 47 45 44 35
27 29 28 27 28 42 44 42 44 41 45 45 43 35 42 44 46 40 33 39 49 69 71 72 71 71 57 63 59 66 77 73 70 69 66 69 69 61 55 57 55 49 48 48 50
29 27 34 33 35 44 45 44 44 44 46 45 43 43 46 40 40 43 52 50 45 53 82 88 80 73 67 51 55 74 62 67 67 67 62 73 70 54 56 53 54 43 39 42 44
Wind_Direction
244 244 245 243 243 242 241 240 240 238 238 237 245 242 243 243 244 246 247 248 250 250 251 252 255 258 261 273 275 280 278 284 259 243 240 246 251 259 260 258 257 261 262 267 235
244 243 241 241 241 243 243 240 239 241 240 240 237 238 241 240 242 243 244 246 247 247 249 250 252 252 255 263 275 277 276 273 278 262 244 251 253 258 265 269 266 262 266 276 255
242 242 241 240 241 239 239 242 241 240 241 240 240 238 239 240 243 242 245 244 246 245 247 248 251 251 256 257 267 272 268 269 272 271 261 257 261 262 271 272 271 272 275 280 265
240 240 241 240 240 240 240 237 241 241 241 240 241 241 240 236 244 244 242 243 245 245 245 246 249 250 257 259 264 268 264 266 265 270 278 264 264 270 267 272 274 274 274 273 286
244 241 239 241 241 240 240 240 239 239 240 241 240 241 241 240 239 243 241 241 244 245 246 244 247 253 252 254 261 266 264 266 263 266 272 272 262 264 265 274 274 274 273 269 263
244 245 243 240 242 241 240 239 239 240 239 239 240 240 241 241 238 243 242 240 242 243 243 245 245 249 251 251 255 260 259 263 270 255 264 270 262 258 272 269 272 272 272 255 259
239 242 244 243 241 240 240 239 238 238 239 240 241 240 239 238 239 241 244 242 240 241 244 245 244 245 249 248 252 255 259 264 268 257 255 265 261 268 259 255 262 266 268 261 253
243 239 239 239 241 238 240 240 238 238 238 239 240 241 241 237 237 239 242 244 242 240 241 246 243 243 246 248 249 252 258 261 270 263 253 258 263 264 264 251 251 255 261 263 256
241 239 238 239 240 239 235 234 235 236 240 238 240 241 241 238 236 236 239 238 242 243 243 244 242 247 246 246 248 255 260 263 265 264 257 255 260 260 262 260 255 257 258 260 262
243 241 238 238 238 240 238 233 232 232 228 221 231 240 240 239 237 237 239 240 240 243 244 244 246 246 249 250 252 258 266 266 264 259 256 256 249 252 254 255 258 261 263 256 259
243 242 240 238 238 238 237 235 233 232 229 227 229 238 237 240 240 236 236 240 240 239 242 244 244 252 258 256 257 260 260 264 261 258 260 258 250 250 250 249 256 259 257 261 254
253 239 240 240 238 239 238 236 235 234 231 232 232 234 231 234 237 231 240 235 240 242 240 241 249 255 255 254 250 258 260 260 261 260 261 256 253 250 250 253 253 257 254 256 255
284 255 240 238 239 240 240 238 234 235 235 232 233 232 231 235 239 238 235 234 235 242 242 243 249 251 253 252 252 252 256 260 265 265 260 263 252 253 247 248 252 251 249 251 253
286 281 265 243 238 237 238 238 239 237 236 230 234 231 230 233 234 237 235 238 237 242 239 240 241 245 245 248 247 250 255 260 261 262 260 256 258 245 247 244 247 244 243 247 247
267 270 275 270 244 238 234 236 237 240 242 232 230 232 230 232 233 235 240 239 239 239 238 241 245 247 251 258 253 258 259 258 257 258 259 245 251 249 246 241 247 246 243 246 250
253 268 270 271 269 247 237 237 237 237 239 240 234 231 231 231 232 234 236 238 239 237 239 243 245 236 240 238 240 245 250 253 252 252 254 253 249 248 253 257 254 254 247 245 249
253 261 263 261 263 257 249 238 240 237 237 239 239 237 234 232 231 234 237 238 237 239 242 241 238 238 235 235 242 247 244 248 250 249 257 257 249 256 260 250 260 244 239 242 242
256 250 256 258 253 254 254 246 245 239 233 237 239 239 237 232 232 233 236 237 239 240 242 243 241 240 246 247 250 254 251 250 258 257 262 261 255 247 257 262 253 246 237 238 246
248 253 243 250 249 246 243 248 261 251 242 237 237 237 238 237 236 237 238 238 238 241 244 245 244 242 243 248 249 249 248 256 257 258 259 253 255 257 256 251 248 243 246 241 246
244 241 246 247 250 247 247 258 287 256 237 235 236 235 234 234 238 241 241 239 239 239 242 245 248 246 247 249 249 250 254 252 247 253 254 251 253 254 256 257 254 251 243 248 247
258 241 236 245 245 248 256 258 253 232 238 233 236 238 237 232 235 236 242 242 242 242 246 248 249 247 249 246 244 244 242 244 246 247 250 253 245 247 261 269 258 251 244 243 250
262 253 240 244 246 249 247 258 255 257 256 252 243 240 239 241 237 237 232 224 243 240 239 242 248 247 249 252 254 253 248 249 248 248 250 256 246 247 258 263 266 265 256 255 242
270 256 248 247 245 247 251 253 252 250 249 243 240 238 237 235 239 234 236 235 232 237 244 239 236 242 246 246 250 249 247 250 248 249 250 251 246 252 256 262 265 266 268 261 259
279 264 246 248 240 240 242 244 248 251 253 248 244 247 242 243 244 240 236 227 227 231 231 226 244 242 242 244 246 244 245 243 243 244 245 247 245 254 260 263 268 273 272 272 261
275 264 252 251 240 241 240 244 248 250 251 251 250 248 249 242 242 246 245 236 228 230 230 234 229 233 245 246 249 250 245 245 246 247 247 248 250 247 261 267 269 269 265 259 246
272 261 248 246 245 240 242 242 246 248 250 249 252 252 247 243 247 241 245 238 237 229 224 226 223 224 224 229 238 244 246 243 246 245 243 241 243 242 247 255 255 258 253 249 248
272 262 254 249 243 234 239 250 253 256 255 259 261 257 255 248 243 237 245 232 221 226 221 227 221 223 222 223 225 231 232 235 237 238 238 240 243 242 246 250 254 254 250 247 244